TimePST,TemperatureF,Dew PointF,Humidity,Sea Level PressureIn,VisibilityMPH,Wind Direction,Wind SpeedMPH,Gust SpeedMPH,PrecipitationIn,Events,Conditions,WindDirDegrees,DateUTC
12:54 AM,37.0,33.1,86,30.12,10.0,Calm,Calm,-,N/A,,Clear,0,2012-12-28 08:54:00
1:54 AM,37.0,32.0,82,30.13,10.0,Calm,Calm,-,N/A,,Clear,0,2012-12-28 09:54:00
2:54 AM,37.0,32.0,82,30.14,10.0,Calm,Calm,-,N/A,,Clear,0,2012-12-28 10:54:00
3:54 AM,35.1,30.0,82,30.12,9.0,Calm,Calm,-,N/A,,Clear,0,2012-12-28 11:54:00
4:54 AM,36.0,30.0,79,30.12,10.0,Calm,Calm,-,N/A,,Clear,0,2012-12-28 12:54:00
5:54 AM,37.0,30.9,79,30.14,10.0,Calm,Calm,-,N/A,,Clear,0,2012-12-28 13:54:00
6:54 AM,32.0,28.0,85,30.15,10.0,Calm,Calm,-,N/A,,Clear,0,2012-12-28 14:54:00
7:54 AM,39.0,35.1,86,30.16,10.0,Calm,Calm,-,N/A,,Clear,0,2012-12-28 15:54:00
8:54 AM,46.9,39.0,74,30.17,10.0,Calm,Calm,-,N/A,,Partly Cloudy,0,2012-12-28 16:54:00
9:54 AM,55.0,41.0,59,30.17,10.0,Calm,Calm,-,N/A,,Clear,0,2012-12-28 17:54:00
10:54 AM,62.1,28.0,28,30.15,10.0,Variable,5.8,-,N/A,,Partly Cloudy,0,2012-12-28 18:54:00
11:54 AM,64.9,25.0,22,30.11,10.0,Variable,3.5,-,N/A,,Partly Cloudy,0,2012-12-28 19:54:00
12:54 PM,66.9,21.9,18,30.08,10.0,Calm,Calm,-,N/A,,Partly Cloudy,0,2012-12-28 20:54:00
1:54 PM,64.0,30.9,29,30.07,10.0,WSW,6.9,-,N/A,,Partly Cloudy,240,2012-12-28 21:54:00
2:54 PM,63.0,33.1,33,30.06,10.0,SW,8.1,-,N/A,,Scattered Clouds,230,2012-12-28 22:54:00
3:54 PM,61.0,30.0,31,30.08,10.0,WSW,4.6,-,N/A,,Scattered Clouds,250,2012-12-28 23:54:00
4:54 PM,57.9,30.9,36,30.07,10.0,Calm,Calm,-,N/A,,Clear,0,2012-12-29 00:54:00
5:54 PM,52.0,32.0,47,30.08,10.0,Calm,Calm,-,N/A,,Clear,0,2012-12-29 01:54:00
6:54 PM,45.0,33.1,63,30.10,10.0,Calm,Calm,-,N/A,,Clear,0,2012-12-29 02:54:00
7:54 PM,46.0,34.0,63,30.11,10.0,Calm,Calm,-,N/A,,Clear,0,2012-12-29 03:54:00
8:54 PM,43.0,33.1,68,30.12,10.0,Calm,Calm,-,N/A,,Clear,0,2012-12-29 04:54:00
9:54 PM,43.0,34.0,71,30.11,10.0,NE,3.5,-,N/A,,Clear,50,2012-12-29 05:54:00
10:54 PM,41.0,33.1,73,30.12,10.0,Calm,Calm,-,N/A,,Clear,0,2012-12-29 06:54:00
11:54 PM,39.0,32.0,76,30.09,10.0,Calm,Calm,-,N/A,,Clear,0,2012-12-29 07:54:00